Location: Unspecified
(40.7945°N, 0.0000°E)
Time: 19:30:28
(UTC+00:00)

Explorer 7 - Pass Details

Date: 27 June 2021
Orbit: 484 x 676 km, 50.3° (Epoch: 28 July)

Event Time Altitude Azimuth Distance (km) Brightness Sun altitude
Rises 22:48:18 0° 303° (WNW) 3,024 11.4 -23.6°
Reaches altitude 10° 22:50:47 10° 310° (NW) 2,098 10.5 -23.7°
Maximum altitude 22:55:28 46° 24° (NNE) 880 8.1 -24.0°
Enters shadow 22:57:23 30° 78° (ENE) 1,169 8.4 -24.1°
